Location: Bidart
(43.4376°N, 1.5913°W)
Time: 00:23:04
(UTC+00:00)

Nadezhda 3 Rocket - Pass Details

Date: 19 May 2025
Orbit: 957 x 997 km, 82.9° (Epoch: 18 June)

Event Time Altitude Azimuth Distance (km) Brightness Sun altitude
Exits shadow 23:06:39 37° 225° (SW) 1,446 4.6 -25.3°
Maximum altitude 23:08:50 56° 282° (WNW) 1,145 4.4 -25.4°
Drops below altitude 10° 23:14:58 10° 360° (N) 2,730 7.3 -25.6°
Sets 23:17:34 0° 5° (N) 3,687 8.2 -25.7°
